Content
SEND FEEDBACK

Daily
Averages
Monthly
Summary
United States of America

HAZELWOOD, MISSOURI


Home > North America > United States > Missouri
Elevation: 570 feet     Latitude: 38 45N     Longitude: 090 22W

WEATHER
 
SELECT A DAY
Number of Records: 196,500;   Date Range: 1/1/95 - 8/30/14
 
SHARE

PRINT THIS DATA

[ ← Previous Day ]
WEATHER ALMANAC - MAY 25, 2013
[ Next Day → ]
[ °C ]   °F
Weather ElementAverageHighLow
Temperature60.2 °F66.9 °F (5:54 pm)46.9 °F (2:54 am)
Dewpoint51.2 °F57.9 °F (7:54 pm)44.1 °F (2:54 am)
Humidity73.5 %90 % (2:54 am)47 % (9:54 am)
Barometer30.24 in30.32 in (6:54 am)30.12 in (6:54 pm)
Wind Speed3.7 mph9.2 mph (9:54 am)
Weather ElementAverage
Visibility9.4 mi
Wind DirectionENE (64.8 °)

Weather ElementTotal
Precipitation0.49 in
Heating Degree Days8.1 (Base 65)
Growing Degree Days6.9 (Base 50)
Averaged from 27 records on May 25, 2013
WEATHER CONDITIONS BREAKOUT
WIND DIRECTION BREAKOUT
WEATHER BY HOUR - MAY 25, 2013
[ °C ]   °F
Local TimeTemperatureDewpointHumidityBarometerVisibilityWind DirectionWind SpeedGust SpeedPrecipitationEventsConditions
1:54 AM50.0 °F46.0 °F86 %30.26 in10.0 miCalmClear
2:54 AM46.9 °F44.1 °F90 %30.27 in10.0 miCalmClear
3:54 AM48.0 °F44.1 °F86 %30.25 in10.0 miCalmClear
4:54 AM48.9 °F45.0 °F86 %30.27 in10.0 miCalmClear
5:54 AM52.0 °F45.0 °F77 %30.28 in10.0 miCalmClear
6:54 AM53.1 °F46.0 °F77 %30.32 in10.0 miESE (120°)3.5 mphOvercast
7:54 AM55.9 °F48.0 °F75 %30.32 in10.0 miESE (110°)3.5 mphMostly Cloudy
8:54 AM62.1 °F46.0 °F56 %30.30 in10.0 miSE (130°)8.1 mphMostly Cloudy
9:54 AM64.9 °F44.1 °F47 %30.28 in10.0 miSE (130°)9.2 mphMostly Cloudy
10:54 AM66.0 °F46.9 °F50 %30.30 in10.0 miVariable6.9 mphOvercast
11:54 AM64.9 °F48.0 °F54 %30.30 in10.0 miEast (100°)5.8 mphOvercast
12:35 PM64.4 °F48.2 °F56 %30.29 in10.0 miESE (120°)4.6 mphThunderstormOvercast
12:54 PM64.0 °F48.9 °F58 %30.27 in10.0 miESE (110°)6.9 mph0.00 inRain-ThunderstormLight Thunderstorms and Rain
1:54 PM59.0 °F55.0 °F87 %30.29 in5.0 miCalm0.10 inRain-ThunderstormRain
2:03 PM59.0 °F55.4 °F88 %30.28 in2.5 miENE (70°)5.8 mph0.06 inRainHeavy Rain
2:21 PM60.8 °F55.4 °F82 %30.26 in7.0 miEast (100°)5.8 mph0.11 inRainLight Rain
2:31 PM60.8 °F55.4 °F82 %30.26 in10.0 miEast (100°)4.6 mph0.11 inThunderstormOvercast
2:54 PM61.0 °F55.9 °F83 %30.25 in10.0 miEast (100°)5.8 mph0.11 inOvercast
3:54 PM64.9 °F55.0 °F70 %30.19 in10.0 miVariable5.8 mphOvercast
4:54 PM66.0 °F54.0 °F65 %30.17 in10.0 miSE (140°)6.9 mphClear
5:54 PM66.9 °F55.0 °F66 %30.15 in10.0 miSSE (160°)3.5 mphOvercast
6:54 PM66.9 °F57.0 °F70 %30.12 in10.0 miCalmOvercast
7:54 PM66.0 °F57.9 °F75 %30.13 in10.0 miEast (80°)4.6 mphOvercast
8:54 PM64.9 °F57.9 °F78 %30.12 in10.0 miCalmOvercast
9:54 PM64.9 °F57.9 °F78 %30.16 in10.0 miEast (100°)3.5 mphOvercast
10:54 PM61.0 °F55.0 °F81 %30.17 in10.0 miCalmClear
11:54 PM61.0 °F55.0 °F81 %30.17 in10.0 miEast (80°)4.6 mphPartly Cloudy
Hourly data recorded from KSUS, located miles away from Hazelwood, Missouri







STORIES FROM OUR PARTNERS